Regional Weather Roundup
Issued by NWS

Home | Current Version | Previous Version | Text Only | Print | Product List | Glossary On
Versions: 1 2 3 4 5 6 7 8 9 10 11 12 13 14 15 16 17 18 19 20 21 22 23 24 25 26 27 28 29 30 31 32 33 34 35 36 37 38 39 40 41 42 43 44 45 46 47 48 49 50
000
ASUS43 KMPX 011510
RWRMN
WEATHER ROUNDUP FOR MINNESOTA
NATIONAL WEATHER SERVICE TWIN CITIES/CHANHASSEN MN
900 AM CST MON MAR 01 2021


NOTE: "FAIR" INDICATES FEW OR NO CLOUDS BELOW 12,000 FEET WITH NO
SIGNIFICANT WEATHER AND/OR OBSTRUCTIONS TO VISIBILITY. N/A MEANS
CURRENT SKY AND/OR WEATHER CONDITIONS ARE NOT AVAILABLE.

MNZ060>063-068>070-011600-
   Twin Cities Metro

CITY           SKY/WX    TMP DP  RH WIND       PRES   REMARKS
TWIN CITIES    SUNNY     15   6  67 N14       30.36R WCI   0
ST PAUL        SUNNY     15   5  64 N14G21    30.38R WCI   0
CRYSTAL        SUNNY     13   2  61 N12       30.36R WCI  -1
BLAINE         SUNNY     12   5  73 N10       30.36R WCI  -1
LAKEVILLE      SUNNY     16   7  67 N8        30.35R WCI   5
EDEN PRAIRIE   SUNNY     15   4  61 N9        30.35R WCI   3
SOUTH ST PAUL  SUNNY     15   6  67 N10       30.36R WCI   2
LAKE ELMO      FAIR      12   1  62 MISG      30.36R
$$
MNZ001>005-007-008-013>017-022>024-027-028-011600-
   Northwest Minnesota

CITY           SKY/WX    TMP DP  RH WIND       PRES   REMARKS
BEMIDJI        MOSUNNY   -5 -15  61 CALM      30.36R
HALLOCK        SUNNY     -6 -17  59 CALM      30.42R
ROSEAU         MOSUNNY   -2 -20  42 CALM      30.39R
WARROAD        MOSUNNY   -9 -17  70 CALM      30.38R
THIEF RVR FALL SUNNY     -3 -14  59 CALM      30.40S
CROOKSTON      SUNNY     -4 -15  59 CALM      30.43F
FOSSTON        MOSUNNY   -8 -17  65 CALM      30.38R
DETROIT LAKES  MOSUNNY   -2 -11  65 N7        30.37R WCI -16
MOORHEAD       MOSUNNY    0  -9  65 N6        30.43S WCI -12
PARK RAPIDS    MOSUNNY    0 -12  57 N6        30.34R WCI -12
MAHNOMEN       FAIR      -2 -11  64 NE3       30.38S
$$
MNZ006-009>011-018-025>026-011600-
   North Central Minnesota

CITY           SKY/WX    TMP DP  RH WIND       PRES   REMARKS
BAUDETTE       MOSUNNY   -9 -17  68 W5        30.37R WCI -20
FLAG ISLAND    PTSUNNY  -11 -20  64 CALM      30.36S
INTL FALLS     MOSUNNY   -6 -16  61 NW5       30.34R WCI -17
WASKISH        MOSUNNY   -8 -17  65 W3        30.37R
BIG FORK       MOSUNNY   -4 -17  54 CALM      30.38R
LONGVILLE      SUNNY     -2 -15  55 N5        30.35R WCI -12
GRAND RAPIDS   SUNNY     -3 -14  59 N8        30.34S WCI -18
CRANE LAKE       N/A     -6 -17  59 NW5       30.36S WCI -17
ORR            MOSUNNY   -6 -17  59 NW5       30.30R WCI -17
COOK           SUNNY     -4 -15  59 W8        30.31R WCI -19
WALKER         SUNNY     -1 -13  56 CALM      30.36R
$$
MNZ012-019>021-037-011600-
   Northeast Minnesota

CITY           SKY/WX    TMP DP  RH WIND       PRES   REMARKS
DULUTH         SUNNY      1 -14  49 NW12      30.29R WCI -16
ELY            SUNNY     -6 -17  59 NW12      30.28S WCI -24
HIBBING        SUNNY     -3 -13  62 NW8       30.31R WCI -18
EVELETH        SUNNY     -2 -14  56 NW7       30.32R WCI -15
DULUTH HARBOR  SUNNY      5 -11  47 NW9       30.39R WCI  -9
TWO HARBORS    SUNNY      1 -18  39 NW7       30.31R WCI -11
SILVER BAY     SUNNY      1 -18  39 CALM      30.30R
GRAND MARAIS     N/A      4 -13  45 MISG      30.32R
G MARAIS ARPRT SUNNY     -2 -18  46 NW13G20   30.14R WCI -21
$$
MNZ029>031-032-039>041-046>048-054>057-064-011600-
   West Central Minnesota

CITY           SKY/WX    TMP DP  RH WIND       PRES   REMARKS
FERGUS FALLS   MOSUNNY    0  -6  78 N3        30.36S
WHEATON        MOSUNNY    1  -4  78 N9        30.43S WCI -14
MORRIS         MOSUNNY    5  -2  72 N7        30.40R WCI  -7
ALEXANDRIA     MOSUNNY    6  -1  73 N9        30.36R WCI  -8
ELBOW LAKE     FAIR      -1  -5  84 N3        30.40R
WADENA         MOSUNNY    1  -8  66 N5          N/A  WCI  -8
GLENWOOD       MOSUNNY    7   1  78 N8        30.36R WCI  -6
APPLETON       SUNNY     10   1  67 N10       30.40R WCI  -3
BENSON         SUNNY      7   0  72 N5        30.41R WCI  -2
ORTONVILLE     SUNNY      9   1  72 N10       30.40R WCI  -6
MADISON        SUNNY     12   3  67 N9        30.41R WCI   0
WILLMAR        FAIR      10   3  72 N5        30.40R WCI   2
$$
MNZ033>034-036-042>043-049>051-058-059-011600-
   Central Minnesota

CITY           SKY/WX    TMP DP  RH WIND       PRES   REMARKS
ST CLOUD       SUNNY      8  -2  63 N8        30.37R WCI  -4
SAUK CENTRE      N/A      6  -1  73 N7        30.37R WCI  -5
PAYNESVILLE    SUNNY      9   3  78 N6        30.37R WCI  -1
AITKIN         SUNNY      3 -11  51 NW5       30.35S WCI  -6
PINE RIVER     SUNNY      3  -9  55 N6        30.38R WCI  -8
BRAINERD       SUNNY      4 -10  52 N10       30.35R WCI -11
STAPLES        SUNNY      3  -4  72 NW5       30.36R WCI  -6
LONG PRAIRIE   FAIR       7   0  72 N5        30.36R WCI  -2
LITTLE FALLS   SUNNY      9 -11  40 N6        30.37R WCI  -1
CAMP RIPLEY    FAIR       5  -8  54 N10       30.38R WCI -10
LITCHFIELD     SUNNY     10   7  85 N6        30.37R WCI   1
BUFFALO        SUNNY     11   4  71 MISG      30.39R
HUTCHINSON     SUNNY     13   8  80 N8        30.37R WCI   1
$$
MNZ037-044-045-052-053-011600-
   East Central Minnesota

CITY           SKY/WX    TMP DP  RH WIND       PRES   REMARKS
PRINCETON      SUNNY     10   0  61 N5        30.36R WCI   2
MORA           SUNNY     10   0  61 N5        30.37R WCI   2
CAMBRIDGE      SUNNY     10   0  61 N8        30.37R WCI  -1
RUSH CITY      SUNNY      9  -3  57 N8        30.37R WCI  -3
MOOSE LAKE     SUNNY      5 -11  47 N8        30.33R WCI  -8
HINCKLEY       SUNNY      9  -6  52 CALM      30.36R
CLOQUET        SUNNY      1 -15  46 N8G18     30.30R WCI -12
MCGREGOR       SUNNY      5  -9  51 N6        30.34S WCI  -6
$$
MNZ071>073-080-081-089-090-097-098-011600-
   Southwest Minnesota

CITY           SKY/WX    TMP DP  RH WIND       PRES   REMARKS
MONTEVIDEO     SUNNY      9   0  66 NE8       30.40R WCI  -4
GRANITE FALLS  SUNNY     13   7  78 N8        30.41R WCI   2
CANBY          SUNNY     11   5  74 W6        30.41R WCI   2
MARSHALL       SUNNY     11   6  81 N9        30.39R WCI  -2
REDWOOD FALLS  SUNNY     14   7  73 N8        30.37R WCI   3
OLIVIA         SUNNY      9   5  85 N5        30.38R WCI   0
PIPESTONE        N/A     12  10  92 NE12G20   30.32R WCI  -2
WINDOM         MOSUNNY   16  10  79 N15       30.32R WCI   1
WORTHINGTON    FLURRIES  17  14  88 N15G22    30.32R WCI   2
JACKSON        CLOUDY    19  14  79 N16       30.32R WCI   5
TRACY          SUNNY     13   8  78 N9        30.36R WCI   1
SLAYTON        MOSUNNY   13   9  85 N13       30.32R WCI  -1
$$
MNZ065>067-074>077-082>085-091>093-011600-
   South Central Minnesota

CITY           SKY/WX    TMP DP  RH WIND       PRES   REMARKS
MANKATO        SUNNY     16  11  80 N14       30.35R WCI   2
NEW ULM        SUNNY     14   9  79 N8        30.36R WCI   3
ST JAMES       SUNNY     18  12  79 N14       30.35R WCI   4
FAIRMONT       MOSUNNY   20  15  81 N16       30.33R WCI   6
GLENCOE        SUNNY     10   6  82 N8        30.37R WCI  -2
FARIBAULT        N/A     16  10  79 N9        30.34R WCI   4
OWATONNA       LGT SNOW  16  10  79 N14       30.31R WCI   1
WASECA         SUNNY     16   9  73 N12       30.33R WCI   3
ALBERT LEA     MOSUNNY   18  12  79 NE12      30.29R WCI   5
$$
MNZ078>079-086>088-094>096-011600-
   Southeast Minnesota

CITY           SKY/WX    TMP DP  RH WIND       PRES   REMARKS
ROCHESTER      PTSUNNY   15   9  76 N14       30.27R WCI   0
RED WING       MOSUNNY   18   9  68 N12       30.34R WCI   5
STANTON        LGT SNOW  15   8  75 N15       30.34R WCI   0
DODGE CENTER   CLOUDY    14   9  79 N15       30.28R WCI  -1
WINONA         CLOUDY    23  14  68 N7        30.32R WCI  15
AUSTIN         SUNNY     19  12  73 N9G17     30.28  WCI   9
PRESTON        SUNNY     17  11  77 N14       30.27R WCI   3
$$
ABBREVIATIONS USED IN REMARKS
   TC - TEMPERATURES IN CELSIUS
  WCI - WIND CHILL INDEX
   HX - HEAT INDEX
  VSB - VISIBILITY
$$




USA.gov is the U.S. government's official web portal to all federal, state and local government web resources and services.